Time,TemperatureF,DewpointF,PressureIn,WindDirection,WindDirectionDegrees,WindSpeedMPH,WindSpeedGustMPH,Humidity,HourlyPrecipIn,Conditions,Clouds,dailyrainin,SoftwareType,DateUTC
2013-09-14 00:00:00,61.9,34.0,30.15,NE,45,0.0,1.6,35,0.00,,,0.00,VWS V14.01,2013-09-14 04:00:00,
2013-09-14 00:01:00,60.4,33.4,30.15,NNE,22,0.0,3.1,36,0.00,,CLR,0.00,VWS V14.01,2013-09-14 04:01:00,
2013-09-14 00:06:00,60.3,33.2,30.15,ENE,68,0.0,3.1,36,0.00,,CLR,0.00,VWS V14.01,2013-09-14 04:06:00,
2013-09-14 00:11:00,60.3,33.9,30.15,ENE,68,0.0,3.1,37,0.00,,CLR,0.00,VWS V14.01,2013-09-14 04:11:00,
2013-09-14 00:16:00,59.9,34.2,30.15,ENE,68,0.0,3.1,38,0.00,,CLR,0.00,VWS V14.01,2013-09-14 04:16:00,
2013-09-14 00:21:00,59.7,34.1,30.15,ENE,68,0.0,3.1,38,0.00,,CLR,0.00,VWS V14.01,2013-09-14 04:21:00,
2013-09-14 00:26:00,59.5,34.6,30.12,ENE,68,0.0,3.1,39,0.00,,CLR,0.00,VWS V14.01,2013-09-14 04:26:00,
2013-09-14 00:31:00,59.4,34.4,30.12,ENE,68,0.0,3.1,39,0.00,,CLR,0.00,VWS V14.01,2013-09-14 04:31:00,
2013-09-14 00:36:00,59.4,34.4,30.12,ENE,68,0.0,3.1,39,0.00,,CLR,0.00,VWS V14.01,2013-09-14 04:36:00,
2013-09-14 00:41:00,59.2,34.9,30.15,ESE,112,0.0,3.1,40,0.00,,CLR,0.00,VWS V14.01,2013-09-14 04:41:00,
2013-09-14 00:46:00,59.0,35.3,30.15,ESE,112,0.0,3.1,41,0.00,,CLR,0.00,VWS V14.01,2013-09-14 04:46:00,
2013-09-14 00:51:00,58.8,35.2,30.15,ESE,112,0.0,3.1,41,0.00,,CLR,0.00,VWS V14.01,2013-09-14 04:51:00,
2013-09-14 00:56:00,58.6,35.6,30.15,ESE,112,0.0,3.1,42,0.00,,CLR,0.00,VWS V14.01,2013-09-14 04:56:00,
2013-09-14 01:00:00,58.6,35.0,30.15,ENE,68,0.0,3.1,41,0.00,,BKN250,0.00,VWS V14.01,2013-09-14 05:00:00,
2013-09-14 01:01:00,58.6,36.2,30.15,ENE,68,0.0,0.0,43,0.00,,CLR,0.00,VWS V14.01,2013-09-14 05:01:00,
2013-09-14 01:06:00,58.5,35.5,30.15,ENE,68,0.0,0.0,42,0.00,,CLR,0.00,VWS V14.01,2013-09-14 05:06:00,
2013-09-14 01:11:00,58.3,36.5,30.15,ENE,68,0.0,0.0,44,0.00,,CLR,0.00,VWS V14.01,2013-09-14 05:11:00,
2013-09-14 01:16:00,58.3,36.5,30.15,ENE,68,0.0,0.0,44,0.00,,CLR,0.00,VWS V14.01,2013-09-14 05:16:00,
2013-09-14 01:21:00,58.1,35.7,30.15,ESE,112,0.0,0.0,43,0.00,,CLR,0.00,VWS V14.01,2013-09-14 05:21:00,
2013-09-14 01:26:00,57.9,36.2,30.15,NE,45,0.0,0.0,44,0.00,,CLR,0.00,VWS V14.01,2013-09-14 05:26:00,
2013-09-14 01:31:00,57.9,36.7,30.15,NE,45,0.0,0.0,45,0.00,,CLR,0.00,VWS V14.01,2013-09-14 05:31:00,
2013-09-14 01:36:00,57.9,36.7,30.15,NE,45,0.0,0.0,45,0.00,,CLR,0.00,VWS V14.01,2013-09-14 05:36:00,
2013-09-14 01:41:00,57.7,36.6,30.15,NE,45,0.0,0.0,45,0.00,,CLR,0.00,VWS V14.01,2013-09-14 05:41:00,
2013-09-14 01:46:00,57.6,37.0,30.15,NE,45,0.0,0.0,46,0.00,,CLR,0.00,VWS V14.01,2013-09-14 05:46:00,
2013-09-14 01:51:00,57.4,37.3,30.15,NE,45,0.0,0.0,47,0.00,,CLR,0.00,VWS V14.01,2013-09-14 05:51:00,
2013-09-14 01:56:00,57.4,36.8,30.12,NE,45,0.0,0.0,46,0.00,,CLR,0.00,VWS V14.01,2013-09-14 05:56:00,
2013-09-14 02:00:00,57.2,36.6,30.12,NE,45,0.0,0.0,46,0.00,,BKN250,0.00,VWS V14.01,2013-09-14 06:00:00,
2013-09-14 02:01:00,57.2,37.2,30.12,NE,45,0.0,0.0,47,0.00,,CLR,0.00,VWS V14.01,2013-09-14 06:01:00,
2013-09-14 02:06:00,57.0,37.0,30.12,NE,45,0.0,0.0,47,0.00,,CLR,0.00,VWS V14.01,2013-09-14 06:06:00,
2013-09-14 02:11:00,57.0,37.5,30.15,NE,45,0.0,0.0,48,0.00,,CLR,0.00,VWS V14.01,2013-09-14 06:11:00,
2013-09-14 02:16:00,57.0,37.0,30.15,NE,45,0.0,0.0,47,0.00,,CLR,0.00,VWS V14.01,2013-09-14 06:16:00,
2013-09-14 02:21:00,56.8,37.9,30.15,NE,45,0.0,0.0,49,0.00,,CLR,0.00,VWS V14.01,2013-09-14 06:21:00,
2013-09-14 02:26:00,56.8,37.9,30.12,NE,45,0.0,0.0,49,0.00,,CLR,0.00,VWS V14.01,2013-09-14 06:26:00,
2013-09-14 02:31:00,56.7,38.8,30.12,NE,45,0.0,0.0,51,0.00,,CLR,0.00,VWS V14.01,2013-09-14 06:31:00,
2013-09-14 02:36:00,56.5,38.1,30.12,NE,45,0.0,0.0,50,0.00,,CLR,0.00,VWS V14.01,2013-09-14 06:36:00,
2013-09-14 02:41:00,56.5,38.6,30.15,NE,45,0.0,0.0,51,0.00,,CLR,0.00,VWS V14.01,2013-09-14 06:41:00,
2013-09-14 02:46:00,56.3,38.9,30.15,NE,45,0.0,0.0,52,0.00,,CLR,0.00,VWS V14.01,2013-09-14 06:46:00,
2013-09-14 02:51:00,56.3,39.4,30.15,NE,45,0.0,0.0,53,0.00,,CLR,0.00,VWS V14.01,2013-09-14 06:51:00,
2013-09-14 02:56:00,56.1,39.2,30.12,NE,45,0.0,0.0,53,0.00,,CLR,0.00,VWS V14.01,2013-09-14 06:56:00,
2013-09-14 03:00:00,55.9,39.1,30.12,NE,45,0.0,0.0,53,0.00,,BKN250,0.00,VWS V14.01,2013-09-14 07:00:00,
2013-09-14 03:01:00,55.9,38.6,30.12,NE,45,0.0,0.0,52,0.00,,CLR,0.00,VWS V14.01,2013-09-14 07:01:00,
2013-09-14 03:06:00,55.9,39.1,30.12,NNE,22,0.0,0.0,53,0.00,,CLR,0.00,VWS V14.01,2013-09-14 07:06:00,
2013-09-14 03:11:00,55.9,39.5,30.12,NNE,22,0.0,0.0,54,0.00,,CLR,0.00,VWS V14.01,2013-09-14 07:11:00,
2013-09-14 03:16:00,55.9,39.1,30.12,NNE,22,0.0,0.0,53,0.00,,CLR,0.00,VWS V14.01,2013-09-14 07:16:00,
2013-09-14 03:21:00,56.1,38.8,30.12,NNE,22,2.2,2.9,52,0.00,,CLR,0.00,VWS V14.01,2013-09-14 07:21:00,
2013-09-14 03:26:00,56.3,38.4,30.15,NE,45,0.0,2.9,51,0.00,,CLR,0.00,VWS V14.01,2013-09-14 07:26:00,
2013-09-14 03:31:00,56.3,38.4,30.15,North,0,2.5,2.9,51,0.00,,CLR,0.00,VWS V14.01,2013-09-14 07:31:00,
2013-09-14 03:36:00,56.5,37.6,30.15,ESE,112,0.0,3.6,49,0.00,,CLR,0.00,VWS V14.01,2013-09-14 07:36:00,
2013-09-14 03:41:00,56.5,37.6,30.15,ENE,68,0.0,3.6,49,0.00,,CLR,0.00,VWS V14.01,2013-09-14 07:41:00,
2013-09-14 03:46:00,56.7,37.7,30.15,NNW,338,0.0,3.6,49,0.00,,CLR,0.00,VWS V14.01,2013-09-14 07:46:00,
2013-09-14 03:51:00,56.7,37.7,30.15,ENE,68,1.6,3.6,49,0.00,,CLR,0.00,VWS V14.01,2013-09-14 07:51:00,
2013-09-14 03:56:00,56.7,37.2,30.15,WSW,248,0.9,3.6,48,0.00,,CLR,0.00,VWS V14.01,2013-09-14 07:56:00,
2013-09-14 04:00:00,56.7,37.2,30.15,North,0,3.1,3.6,48,0.00,,BKN250,0.00,VWS V14.01,2013-09-14 08:00:00,
2013-09-14 04:01:00,56.7,37.2,30.15,NNW,338,0.0,3.1,48,0.00,,CLR,0.00,VWS V14.01,2013-09-14 08:01:00,
2013-09-14 04:06:00,56.7,36.7,30.15,NW,315,0.0,3.1,47,0.00,,CLR,0.00,VWS V14.01,2013-09-14 08:06:00,
2013-09-14 04:11:00,56.7,36.7,30.15,North,0,0.0,3.1,47,0.00,,CLR,0.00,VWS V14.01,2013-09-14 08:11:00,
2013-09-14 04:16:00,56.7,36.7,30.15,NNE,22,0.0,3.1,47,0.00,,CLR,0.00,VWS V14.01,2013-09-14 08:16:00,
2013-09-14 04:21:00,56.5,36.5,30.15,ENE,68,0.0,3.1,47,0.00,,CLR,0.00,VWS V14.01,2013-09-14 08:21:00,
2013-09-14 04:26:00,56.5,36.5,30.15,NNW,338,2.7,3.1,47,0.00,,CLR,0.00,VWS V14.01,2013-09-14 08:26:00,
2013-09-14 04:31:00,56.5,36.5,30.15,NNW,338,1.3,4.0,47,0.00,,CLR,0.00,VWS V14.01,2013-09-14 08:31:00,
2013-09-14 04:36:00,56.5,36.5,30.15,North,0,1.3,4.0,47,0.00,,CLR,0.00,VWS V14.01,2013-09-14 08:36:00,
2013-09-14 04:41:00,56.3,36.3,30.15,North,0,1.6,4.0,47,0.00,,CLR,0.00,VWS V14.01,2013-09-14 08:41:00,
2013-09-14 04:46:00,56.3,36.3,30.15,NNE,22,2.7,4.0,47,0.00,,CLR,0.00,VWS V14.01,2013-09-14 08:46:00,
2013-09-14 04:51:00,56.1,36.7,30.15,NNE,22,0.0,4.0,48,0.00,,CLR,0.00,VWS V14.01,2013-09-14 08:51:00,
2013-09-14 04:56:00,55.9,36.5,30.15,NNE,22,1.3,4.0,48,0.00,,CLR,0.00,VWS V14.01,2013-09-14 08:56:00,
2013-09-14 05:00:00,55.9,36.5,30.15,NNE,22,1.6,4.0,48,0.00,,BKN250,0.00,VWS V14.01,2013-09-14 09:00:00,
2013-09-14 05:01:00,55.9,36.5,30.15,North,0,0.9,1.6,48,0.00,,CLR,0.00,VWS V14.01,2013-09-14 09:01:00,
2013-09-14 05:06:00,55.8,36.4,30.15,North,0,1.3,2.7,48,0.00,,CLR,0.00,VWS V14.01,2013-09-14 09:06:00,
2013-09-14 05:11:00,55.6,36.2,30.15,NNE,22,1.3,3.6,48,0.00,,CLR,0.00,VWS V14.01,2013-09-14 09:11:00,
2013-09-14 05:16:00,55.6,36.2,30.15,NNW,338,1.1,3.6,48,0.00,,CLR,0.00,VWS V14.01,2013-09-14 09:16:00,
2013-09-14 05:21:00,55.6,36.7,30.15,NNW,338,0.0,3.6,49,0.00,,CLR,0.00,VWS V14.01,2013-09-14 09:21:00,
2013-09-14 05:26:00,55.4,36.6,30.15,ENE,68,3.6,3.6,49,0.00,,CLR,0.00,VWS V14.01,2013-09-14 09:26:00,
2013-09-14 05:31:00,55.4,36.6,30.15,NNW,338,0.0,3.6,49,0.00,,CLR,0.00,VWS V14.01,2013-09-14 09:31:00,
2013-09-14 05:36:00,55.4,36.6,30.15,NNE,22,2.2,5.4,49,0.00,,CLR,0.00,VWS V14.01,2013-09-14 09:36:00,
2013-09-14 05:41:00,55.4,36.6,30.15,North,0,0.0,5.4,49,0.00,,CLR,0.00,VWS V14.01,2013-09-14 09:41:00,
2013-09-14 05:46:00,55.2,37.4,30.15,NNE,22,0.0,5.4,51,0.00,,CLR,0.00,VWS V14.01,2013-09-14 09:46:00,
2013-09-14 05:51:00,55.2,36.9,30.15,North,0,0.0,5.4,50,0.00,,CLR,0.00,VWS V14.01,2013-09-14 09:51:00,
2013-09-14 05:56:00,55.0,37.3,30.15,NNW,338,2.0,5.4,51,0.00,,CLR,0.00,VWS V14.01,2013-09-14 09:56:00,
2013-09-14 06:00:00,55.0,37.8,30.15,North,0,0.0,5.4,52,0.00,,BKN250,0.00,VWS V14.01,2013-09-14 10:00:00,
2013-09-14 06:01:00,55.0,37.8,30.15,North,0,0.0,0.0,52,0.00,,CLR,0.00,VWS V14.01,2013-09-14 10:01:00,
2013-09-14 06:06:00,55.0,37.8,30.15,North,0,0.0,1.3,52,0.00,,CLR,0.00,VWS V14.01,2013-09-14 10:06:00,
2013-09-14 06:11:00,55.0,37.8,30.15,NNW,338,1.3,2.5,52,0.00,,CLR,0.00,VWS V14.01,2013-09-14 10:11:00,
2013-09-14 06:16:00,54.9,37.6,30.15,NNW,338,0.0,2.9,52,0.00,,CLR,0.00,VWS V14.01,2013-09-14 10:16:00,
2013-09-14 06:21:00,54.9,37.6,30.15,NNE,22,0.0,3.4,52,0.00,,CLR,0.00,VWS V14.01,2013-09-14 10:21:00,
2013-09-14 06:26:00,54.7,37.9,30.18,North,0,0.0,3.4,53,0.00,,CLR,0.00,VWS V14.01,2013-09-14 10:26:00,
2013-09-14 06:31:00,54.5,38.7,30.18,NNE,22,0.0,3.4,55,0.00,,CLR,0.00,VWS V14.01,2013-09-14 10:31:00,
2013-09-14 06:36:00,54.3,38.5,30.18,NNW,338,0.9,3.4,55,0.00,,CLR,0.00,VWS V14.01,2013-09-14 10:36:00,
2013-09-14 06:41:00,54.3,38.5,30.18,NNE,22,1.6,3.4,55,0.00,,CLR,0.00,VWS V14.01,2013-09-14 10:41:00,
2013-09-14 06:46:00,54.3,39.0,30.18,NNE,22,0.0,3.4,56,0.00,,CLR,0.00,VWS V14.01,2013-09-14 10:46:00,
2013-09-14 06:51:00,54.3,39.0,30.18,North,0,0.9,3.4,56,0.00,,CLR,0.00,VWS V14.01,2013-09-14 10:51:00,
2013-09-14 06:56:00,54.1,39.3,30.18,NNE,22,0.0,3.4,57,0.00,,CLR,0.00,VWS V14.01,2013-09-14 10:56:00,
2013-09-14 07:00:00,54.1,39.3,30.18,NNW,338,0.0,3.4,57,0.00,,BKN250,0.00,VWS V14.01,2013-09-14 11:00:00,
2013-09-14 07:01:00,54.0,39.5,30.18,NNW,338,0.0,0.0,58,0.00,,CLR,0.00,VWS V14.01,2013-09-14 11:01:00,
2013-09-14 07:06:00,54.0,39.5,30.18,NNW,338,0.0,0.0,58,0.00,,CLR,0.00,VWS V14.01,2013-09-14 11:06:00,
2013-09-14 07:11:00,53.8,38.9,30.18,North,0,2.2,2.9,57,0.00,,CLR,0.00,VWS V14.01,2013-09-14 11:11:00,
2013-09-14 07:16:00,53.8,39.8,30.18,North,0,0.0,2.9,59,0.00,,CLR,0.00,VWS V14.01,2013-09-14 11:16:00,
2013-09-14 07:21:00,53.6,39.2,30.18,NNW,338,0.0,2.9,58,0.00,,CLR,0.00,VWS V14.01,2013-09-14 11:21:00,
2013-09-14 07:26:00,53.6,39.6,30.18,NW,315,0.0,2.9,59,0.00,,CLR,0.00,VWS V14.01,2013-09-14 11:26:00,
2013-09-14 07:31:00,53.6,39.6,30.18,North,0,0.0,2.9,59,0.00,,CLR,0.00,VWS V14.01,2013-09-14 11:31:00,
2013-09-14 07:36:00,53.6,40.1,30.18,North,0,0.0,2.9,60,0.00,,CLR,0.00,VWS V14.01,2013-09-14 11:36:00,
2013-09-14 07:41:00,53.4,40.3,30.21,North,0,0.0,2.9,61,0.00,,CLR,0.00,VWS V14.01,2013-09-14 11:41:00,
2013-09-14 07:46:00,53.4,40.7,30.21,North,0,0.0,2.9,62,0.00,,CLR,0.00,VWS V14.01,2013-09-14 11:46:00,
2013-09-14 07:51:00,53.4,40.7,30.21,NNW,338,0.0,2.9,62,0.00,,CLR,0.00,VWS V14.01,2013-09-14 11:51:00,
2013-09-14 07:56:00,53.4,40.3,30.21,North,0,0.0,2.9,61,0.00,,CLR,0.00,VWS V14.01,2013-09-14 11:56:00,
2013-09-14 08:00:00,53.4,39.9,30.21,NNE,22,1.1,3.8,60,0.00,,BKN250,0.00,VWS V14.01,2013-09-14 12:00:00,
2013-09-14 08:01:00,53.6,40.1,30.21,NW,315,2.9,2.9,60,0.00,,CLR,0.00,VWS V14.01,2013-09-14 12:01:00,
2013-09-14 08:06:00,53.8,40.2,30.21,NNE,22,2.0,2.9,60,0.00,,CLR,0.00,VWS V14.01,2013-09-14 12:06:00,
2013-09-14 08:11:00,54.0,40.4,30.21,NNW,338,0.0,3.4,60,0.00,,CLR,0.00,VWS V14.01,2013-09-14 12:11:00,
2013-09-14 08:16:00,54.3,40.8,30.21,ESE,112,4.9,4.9,60,0.00,,-RA,0.00,VWS V14.01,2013-09-14 12:16:00,
2013-09-14 08:21:00,54.5,40.5,30.21,North,0,1.1,5.4,59,0.00,,-RA,0.00,VWS V14.01,2013-09-14 12:21:00,
2013-09-14 08:26:00,54.7,40.7,30.21,NNW,338,2.9,5.4,59,0.00,,-RA,0.00,VWS V14.01,2013-09-14 12:26:00,
2013-09-14 08:31:00,54.9,40.8,30.21,SSE,158,0.0,5.4,59,0.00,,-RA,0.00,VWS V14.01,2013-09-14 12:31:00,
2013-09-14 08:36:00,55.2,41.2,30.21,SE,135,1.6,5.4,59,0.00,,-RA,0.00,VWS V14.01,2013-09-14 12:36:00,
2013-09-14 08:41:00,55.6,41.0,30.21,ESE,112,0.0,5.4,58,0.00,,-RA,0.00,VWS V14.01,2013-09-14 12:41:00,
2013-09-14 08:46:00,55.8,40.8,30.21,ENE,68,0.9,5.4,57,0.00,,-RA,0.00,VWS V14.01,2013-09-14 12:46:00,
2013-09-14 08:51:00,55.9,40.5,30.21,NNE,22,2.0,5.4,56,0.00,,-RA,0.00,VWS V14.01,2013-09-14 12:51:00,
2013-09-14 08:56:00,56.1,40.7,30.21,NNE,22,3.8,5.4,56,0.00,,-RA,0.00,VWS V14.01,2013-09-14 12:56:00,
2013-09-14 09:00:00,53.4,39.9,30.21,NNE,22,1.1,3.8,60,0.00,,,0.00,VWS V14.01,2013-09-14 13:00:00,
2013-09-14 09:01:00,56.1,40.2,30.21,NE,45,0.0,5.4,55,0.00,,-RA,0.00,VWS V14.01,2013-09-14 13:01:00,
2013-09-14 09:06:00,56.5,40.5,30.21,WNW,292,1.3,5.4,55,0.00,,-RA,0.00,VWS V14.01,2013-09-14 13:06:00,
2013-09-14 09:11:00,56.7,40.2,30.21,NNE,22,3.8,5.4,54,0.00,,-RA,0.00,VWS V14.01,2013-09-14 13:11:00,
2013-09-14 09:15:00,56.7,39.7,30.21,NNE,22,2.9,5.8,53,0.00,,CLR,0.00,VWS V14.01,2013-09-14 13:15:00,
2013-09-14 09:20:00,56.7,39.2,30.21,NNW,338,3.1,6.0,52,0.00,,CLR,0.00,VWS V14.01,2013-09-14 13:20:00,
2013-09-14 09:25:00,56.8,39.9,30.24,North,0,2.0,6.0,53,0.00,,CLR,0.00,VWS V14.01,2013-09-14 13:25:00,
2013-09-14 09:30:00,57.0,40.1,30.24,NNW,338,3.1,6.0,53,0.00,,CLR,0.00,VWS V14.01,2013-09-14 13:30:00,
2013-09-14 09:35:00,57.2,39.8,30.24,ENE,68,0.0,6.0,52,0.00,,CLR,0.00,VWS V14.01,2013-09-14 13:35:00,
2013-09-14 09:40:00,57.6,40.1,30.21,SSE,158,1.1,6.0,52,0.00,,CLR,0.00,VWS V14.01,2013-09-14 13:40:00,
2013-09-14 09:45:00,57.9,39.9,30.21,NNE,22,0.0,6.0,51,0.00,,CLR,0.00,VWS V14.01,2013-09-14 13:45:00,
2013-09-14 09:50:00,58.3,40.2,30.21,SE,135,1.6,6.0,51,0.00,,CLR,0.00,VWS V14.01,2013-09-14 13:50:00,
2013-09-14 09:55:00,58.5,40.4,30.21,SSE,158,1.1,6.0,51,0.00,,CLR,0.00,VWS V14.01,2013-09-14 13:55:00,
2013-09-14 10:00:00,58.8,40.2,30.21,ESE,112,2.2,5.8,50,0.00,,CLR,0.00,VWS V14.01,2013-09-14 14:00:00,
2013-09-14 10:05:00,58.8,39.7,30.21,North,0,3.1,5.8,49,0.00,,CLR,0.00,VWS V14.01,2013-09-14 14:05:00,
2013-09-14 10:10:00,59.2,40.0,30.24,NNW,338,0.0,5.8,49,0.00,,CLR,0.00,VWS V14.01,2013-09-14 14:10:00,
2013-09-14 10:15:00,59.9,40.7,30.24,NNW,338,2.7,5.8,49,0.00,,CLR,0.00,VWS V14.01,2013-09-14 14:15:00,
2013-09-14 10:20:00,60.4,40.7,30.24,South,180,1.1,5.8,48,0.00,,CLR,0.00,VWS V14.01,2013-09-14 14:20:00,
2013-09-14 10:25:00,60.8,39.9,30.24,ENE,68,1.6,5.8,46,0.00,,CLR,0.00,VWS V14.01,2013-09-14 14:25:00,
2013-09-14 10:30:00,61.0,39.5,30.24,NNE,22,2.2,5.8,45,0.00,,CLR,0.00,VWS V14.01,2013-09-14 14:30:00,
2013-09-14 10:35:00,61.2,39.1,30.24,NW,315,4.0,5.8,44,0.00,,CLR,0.00,VWS V14.01,2013-09-14 14:35:00,
2013-09-14 10:40:00,61.3,38.7,30.24,ESE,112,2.0,5.8,43,0.00,,CLR,0.00,VWS V14.01,2013-09-14 14:40:00,
2013-09-14 10:45:00,61.9,39.2,30.24,SSE,158,1.3,5.8,43,0.00,,CLR,0.00,VWS V14.01,2013-09-14 14:45:00,
2013-09-14 10:50:00,62.4,39.7,30.24,NNE,22,2.7,5.8,43,0.00,,CLR,0.00,VWS V14.01,2013-09-14 14:50:00,
2013-09-14 10:55:00,62.4,38.4,30.24,SSW,202,2.5,5.8,41,0.00,,CLR,0.00,VWS V14.01,2013-09-14 14:55:00,
2013-09-14 11:00:00,62.6,38.0,30.24,NNW,338,2.9,3.6,40,0.00,,CLR,0.00,VWS V14.01,2013-09-14 15:00:00,
2013-09-14 11:05:00,62.6,37.3,30.24,North,0,0.9,3.6,39,0.00,,CLR,0.00,VWS V14.01,2013-09-14 15:05:00,
2013-09-14 11:10:00,63.0,37.6,30.24,ENE,68,3.8,4.5,39,0.00,,CLR,0.00,VWS V14.01,2013-09-14 15:10:00,
2013-09-14 11:15:00,63.3,38.0,30.24,ESE,112,4.3,4.5,39,0.00,,CLR,0.00,VWS V14.01,2013-09-14 15:15:00,
2013-09-14 11:20:00,63.5,35.4,30.24,NNW,338,3.4,6.0,35,0.00,,CLR,0.00,VWS V14.01,2013-09-14 15:20:00,
2013-09-14 11:25:00,63.9,36.4,30.27,ENE,68,2.5,6.0,36,0.00,,CLR,0.00,VWS V14.01,2013-09-14 15:25:00,
2013-09-14 11:30:00,64.2,36.7,30.27,SSE,158,3.4,7.6,36,0.00,,CLR,0.00,VWS V14.01,2013-09-14 15:30:00,
2013-09-14 11:35:00,64.6,35.6,30.27,SSE,158,2.0,7.6,34,0.00,,CLR,0.00,VWS V14.01,2013-09-14 15:35:00,
2013-09-14 11:40:00,64.8,36.5,30.24,ESE,112,0.0,7.6,35,0.00,,CLR,0.00,VWS V14.01,2013-09-14 15:40:00,
2013-09-14 11:45:00,65.3,37.0,30.24,North,0,0.9,7.6,35,0.00,,CLR,0.00,VWS V14.01,2013-09-14 15:45:00,
2013-09-14 11:50:00,65.5,36.4,30.24,SE,135,1.1,7.6,34,0.00,,CLR,0.00,VWS V14.01,2013-09-14 15:50:00,
2013-09-14 11:55:00,65.8,36.0,30.24,NNW,338,1.3,7.6,33,0.00,,CLR,0.00,VWS V14.01,2013-09-14 15:55:00,
2013-09-14 12:00:00,65.8,34.4,30.24,NW,315,4.3,5.8,31,0.00,,CLR,0.00,VWS V14.01,2013-09-14 16:00:00,
2013-09-14 12:05:00,66.2,34.7,30.24,North,0,2.5,5.8,31,0.00,,CLR,0.00,VWS V14.01,2013-09-14 16:05:00,
2013-09-14 12:10:00,66.4,34.9,30.24,SSE,158,3.6,5.8,31,0.00,,CLR,0.00,VWS V14.01,2013-09-14 16:10:00,
2013-09-14 12:15:00,66.7,35.2,30.24,SSE,158,2.0,5.8,31,0.00,,CLR,0.00,VWS V14.01,2013-09-14 16:15:00,
2013-09-14 12:20:00,66.9,34.5,30.24,NNW,338,3.4,5.8,30,0.00,,CLR,0.00,VWS V14.01,2013-09-14 16:20:00,
2013-09-14 12:25:00,67.1,33.8,30.21,ESE,112,2.5,5.8,29,0.00,,CLR,0.00,VWS V14.01,2013-09-14 16:25:00,
2013-09-14 12:30:00,67.1,31.1,30.21,NNW,338,4.9,5.8,26,0.00,,CLR,0.00,VWS V14.01,2013-09-14 16:30:00,
2013-09-14 12:35:00,67.3,32.2,30.21,NE,45,3.4,5.8,27,0.00,,CLR,0.00,VWS V14.01,2013-09-14 16:35:00,
2013-09-14 12:40:00,67.5,32.3,30.21,North,0,1.3,6.5,27,0.00,,CLR,0.00,VWS V14.01,2013-09-14 16:40:00,
2013-09-14 12:45:00,67.6,30.6,30.21,NNE,22,2.9,8.1,25,0.00,,CLR,0.00,VWS V14.01,2013-09-14 16:45:00,
2013-09-14 12:50:00,68.2,32.0,30.21,ENE,68,3.1,8.1,26,0.00,,CLR,0.00,VWS V14.01,2013-09-14 16:50:00,
2013-09-14 12:55:00,68.5,32.3,30.21,South,180,2.0,8.1,26,0.00,,CLR,0.00,VWS V14.01,2013-09-14 16:55:00,
2013-09-14 13:00:00,68.9,31.7,30.21,ENE,68,1.1,2.9,25,0.00,,CLR,0.00,VWS V14.01,2013-09-14 17:00:00,
2013-09-14 13:05:00,68.9,31.7,30.21,SE,135,1.6,4.0,25,0.00,,CLR,0.00,VWS V14.01,2013-09-14 17:05:00,
2013-09-14 13:10:00,69.3,32.0,30.21,ENE,68,3.4,4.3,25,0.00,,CLR,0.00,VWS V14.01,2013-09-14 17:10:00,
2013-09-14 13:15:00,69.3,31.0,30.21,North,0,2.7,4.7,24,0.00,,CLR,0.00,VWS V14.01,2013-09-14 17:15:00,
2013-09-14 13:20:00,69.6,31.3,30.21,NW,315,4.7,5.8,24,0.00,,CLR,0.00,VWS V14.01,2013-09-14 17:20:00,
2013-09-14 13:25:00,69.8,30.4,30.21,East,90,3.1,6.5,23,0.00,,CLR,0.00,VWS V14.01,2013-09-14 17:25:00,
2013-09-14 13:30:00,69.8,30.4,30.21,NNE,22,1.3,6.5,23,0.00,,CLR,0.00,VWS V14.01,2013-09-14 17:30:00,
2013-09-14 13:35:00,70.5,32.0,30.21,SSE,158,2.0,6.5,24,0.00,,CLR,0.00,VWS V14.01,2013-09-14 17:35:00,
2013-09-14 13:40:00,71.2,32.6,30.21,West,270,2.0,6.5,24,0.00,,CLR,0.00,VWS V14.01,2013-09-14 17:40:00,
2013-09-14 13:45:00,71.6,32.9,30.21,SSE,158,3.8,6.5,24,0.00,,-RA,0.00,VWS V14.01,2013-09-14 17:45:00,
2013-09-14 13:50:00,72.0,31.1,30.21,SE,135,2.5,6.5,22,0.00,,-RA,0.00,VWS V14.01,2013-09-14 17:50:00,
2013-09-14 13:55:00,72.0,31.1,30.21,ENE,68,0.9,6.5,22,0.00,,-RA,0.00,VWS V14.01,2013-09-14 17:55:00,
2013-09-14 14:00:00,72.1,31.2,30.21,East,90,0.0,2.5,22,0.00,,CLR,0.00,VWS V14.01,2013-09-14 18:00:00,
2013-09-14 14:05:00,72.3,31.4,30.21,NNW,338,4.3,4.7,22,0.00,,CLR,0.00,VWS V14.01,2013-09-14 18:05:00,
2013-09-14 14:10:00,72.0,31.1,30.21,NNE,22,2.2,6.0,22,0.00,,CLR,0.00,VWS V14.01,2013-09-14 18:10:00,
2013-09-14 14:15:00,72.1,31.2,30.21,SSE,158,1.1,6.0,22,0.00,,CLR,0.00,VWS V14.01,2013-09-14 18:15:00,
2013-09-14 14:20:00,72.5,31.5,30.21,South,180,0.0,6.0,22,0.00,,CLR,0.00,VWS V14.01,2013-09-14 18:20:00,
2013-09-14 14:25:00,72.3,30.2,30.21,NNW,338,4.0,7.8,21,0.00,,CLR,0.00,VWS V14.01,2013-09-14 18:25:00,
2013-09-14 14:30:00,72.3,30.2,30.21,NNW,338,4.9,7.8,21,0.00,,CLR,0.00,VWS V14.01,2013-09-14 18:30:00,
2013-09-14 14:35:00,71.8,29.8,30.21,NNW,338,5.6,7.8,21,0.00,,CLR,0.00,VWS V14.01,2013-09-14 18:35:00,
2013-09-14 14:40:00,71.8,29.8,30.18,North,0,3.4,7.8,21,0.00,,CLR,0.00,VWS V14.01,2013-09-14 18:40:00,
2013-09-14 14:45:00,71.8,29.8,30.18,NNW,338,1.3,7.8,21,0.00,,CLR,0.00,VWS V14.01,2013-09-14 18:45:00,
2013-09-14 14:50:00,72.1,31.2,30.18,ESE,112,3.6,7.8,22,0.00,,CLR,0.00,VWS V14.01,2013-09-14 18:50:00,
2013-09-14 14:55:00,72.7,31.7,30.18,East,90,1.1,7.8,22,0.00,,CLR,0.00,VWS V14.01,2013-09-14 18:55:00,
2013-09-14 15:00:00,72.9,30.7,30.18,NE,45,0.9,2.7,21,0.00,,CLR,0.00,VWS V14.01,2013-09-14 19:00:00,
2013-09-14 15:05:00,73.0,30.8,30.18,SSE,158,6.3,6.5,21,0.00,,CLR,0.00,VWS V14.01,2013-09-14 19:05:00,
2013-09-14 15:10:00,73.4,31.1,30.18,SSE,158,2.5,6.5,21,0.00,,CLR,0.00,VWS V14.01,2013-09-14 19:10:00,
2013-09-14 15:15:00,73.4,31.1,30.18,SSW,202,1.3,6.5,21,0.00,,CLR,0.00,VWS V14.01,2013-09-14 19:15:00,
2013-09-14 15:20:00,73.0,28.4,30.18,SW,225,2.0,6.5,19,0.00,,CLR,0.00,VWS V14.01,2013-09-14 19:20:00,
2013-09-14 15:25:00,73.2,28.5,30.15,SSE,158,1.1,6.5,19,0.00,,CLR,0.00,VWS V14.01,2013-09-14 19:25:00,
2013-09-14 15:30:00,73.2,31.0,30.15,South,180,4.0,6.5,21,0.00,,CLR,0.00,VWS V14.01,2013-09-14 19:30:00,
2013-09-14 15:35:00,73.4,27.4,30.15,NW,315,1.1,6.5,18,0.00,,CLR,0.00,VWS V14.01,2013-09-14 19:35:00,
2013-09-14 15:40:00,73.8,31.4,30.15,South,180,2.7,6.5,21,0.00,,CLR,0.00,VWS V14.01,2013-09-14 19:40:00,
2013-09-14 15:45:00,73.6,31.3,30.15,ENE,68,2.0,6.5,21,0.00,,CLR,0.00,VWS V14.01,2013-09-14 19:45:00,
2013-09-14 15:50:00,73.4,31.1,30.15,NNE,22,2.7,6.5,21,0.00,,CLR,0.00,VWS V14.01,2013-09-14 19:50:00,
2013-09-14 15:55:00,73.4,31.1,30.15,ENE,68,2.9,6.5,21,0.00,,CLR,0.00,VWS V14.01,2013-09-14 19:55:00,
2013-09-14 16:00:00,73.4,27.4,30.15,NNE,22,2.2,2.2,18,0.00,,CLR,0.00,VWS V14.01,2013-09-14 20:00:00,
2013-09-14 16:05:00,73.2,28.5,30.15,SSW,202,0.0,3.4,19,0.00,,CLR,0.00,VWS V14.01,2013-09-14 20:05:00,
2013-09-14 16:10:00,73.0,28.4,30.15,NNW,338,3.8,4.9,19,0.00,,CLR,0.00,VWS V14.01,2013-09-14 20:10:00,
2013-09-14 16:15:00,73.0,28.4,30.15,NE,45,3.8,6.3,19,0.00,,CLR,0.00,VWS V14.01,2013-09-14 20:15:00,
2013-09-14 16:20:00,73.0,30.8,30.15,ESE,112,0.0,6.3,21,0.00,,CLR,0.00,VWS V14.01,2013-09-14 20:20:00,
2013-09-14 16:25:00,73.2,31.0,30.15,NNE,22,2.5,6.3,21,0.00,,CLR,0.00,VWS V14.01,2013-09-14 20:25:00,
2013-09-14 16:30:00,73.0,30.8,30.15,North,0,2.7,6.3,21,0.00,,CLR,0.00,VWS V14.01,2013-09-14 20:30:00,
2013-09-14 16:35:00,73.0,28.4,30.15,NNW,338,3.1,6.3,19,0.00,,CLR,0.00,VWS V14.01,2013-09-14 20:35:00,
2013-09-14 16:40:00,73.0,28.4,30.15,WNW,292,4.0,6.3,19,0.00,,CLR,0.00,VWS V14.01,2013-09-14 20:40:00,
2013-09-14 16:45:00,73.0,28.4,30.15,WNW,292,1.3,7.2,19,0.00,,CLR,0.00,VWS V14.01,2013-09-14 20:45:00,
2013-09-14 16:50:00,73.0,28.4,30.15,NNW,338,1.6,7.2,19,0.00,,CLR,0.00,VWS V14.01,2013-09-14 20:50:00,
2013-09-14 16:55:00,73.0,28.4,30.15,NNW,338,0.0,7.2,19,0.00,,CLR,0.00,VWS V14.01,2013-09-14 20:55:00,
2013-09-14 17:00:00,73.2,28.5,30.15,ESE,112,2.2,2.2,19,0.00,,SCT250,0.00,VWS V14.01,2013-09-14 21:00:00,
2013-09-14 17:05:00,73.4,27.4,30.15,NNE,22,2.9,5.4,18,0.00,,SCT250,0.00,VWS V14.01,2013-09-14 21:05:00,
2013-09-14 17:10:00,73.4,27.4,30.15,ENE,68,2.7,6.7,18,0.00,,SCT250,0.00,VWS V14.01,2013-09-14 21:10:00,
2013-09-14 17:15:00,73.6,27.5,30.15,North,0,1.6,6.7,18,0.00,,SCT250,0.00,VWS V14.01,2013-09-14 21:15:00,
2013-09-14 17:20:00,73.4,24.5,30.15,NNW,338,6.0,6.7,16,0.00,,SCT250,0.00,VWS V14.01,2013-09-14 21:20:00,
2013-09-14 17:25:00,73.4,27.4,30.15,NNW,338,2.2,6.7,18,0.00,,SCT250,0.00,VWS V14.01,2013-09-14 21:25:00,
2013-09-14 17:30:00,73.6,24.7,30.15,NNE,22,2.7,6.7,16,0.00,,SCT250,0.00,VWS V14.01,2013-09-14 21:30:00,
2013-09-14 17:35:00,73.6,27.5,30.15,SSE,158,3.4,6.7,18,0.00,,SCT250,0.00,VWS V14.01,2013-09-14 21:35:00,
2013-09-14 17:40:00,73.6,27.5,30.15,SSE,158,1.6,6.7,18,0.00,,SCT250,0.00,VWS V14.01,2013-09-14 21:40:00,
2013-09-14 17:45:00,73.6,27.5,30.15,ESE,112,0.0,6.7,18,0.00,,SCT250,0.00,VWS V14.01,2013-09-14 21:45:00,
2013-09-14 17:50:00,73.6,27.5,30.15,NNW,338,1.3,6.7,18,0.00,,SCT250,0.00,VWS V14.01,2013-09-14 21:50:00,
2013-09-14 17:55:00,73.6,27.5,30.15,ESE,112,1.3,6.7,18,0.00,,SCT250,0.00,VWS V14.01,2013-09-14 21:55:00,
2013-09-14 18:00:00,73.6,27.5,30.15,ENE,68,0.0,1.1,18,0.00,,SCT250,0.00,VWS V14.01,2013-09-14 22:00:00,
2013-09-14 18:05:00,73.4,27.4,30.15,SSE,158,4.0,6.5,18,0.00,,CLR,0.00,VWS V14.01,2013-09-14 22:05:00,
2013-09-14 18:10:00,73.2,28.5,30.15,North,0,0.9,6.5,19,0.00,,CLR,0.00,VWS V14.01,2013-09-14 22:10:00,
2013-09-14 18:15:00,73.0,24.2,30.15,SSE,158,5.6,6.5,16,0.00,,CLR,0.00,VWS V14.01,2013-09-14 22:15:00,
2013-09-14 18:20:00,72.7,23.9,30.15,SSW,202,2.2,630.1,16,0.00,,CLR,0.00,VWS V14.01,2013-09-14 22:20:00,
2013-09-14 18:25:00,72.7,23.9,30.15,SE,135,3.1,630.1,16,0.00,,CLR,0.00,VWS V14.01,2013-09-14 22:25:00,
2013-09-14 18:30:00,72.3,27.8,30.15,SSE,158,0.0,630.1,19,0.00,,CLR,0.00,VWS V14.01,2013-09-14 22:30:00,
2013-09-14 18:35:00,72.1,27.6,30.15,ESE,112,2.0,630.1,19,0.00,,CLR,0.00,VWS V14.01,2013-09-14 22:35:00,
2013-09-14 18:40:00,72.0,27.5,30.15,SSE,158,2.5,630.1,19,0.00,,CLR,0.00,VWS V14.01,2013-09-14 22:40:00,
2013-09-14 18:45:00,71.8,27.3,30.15,SSE,158,0.0,630.1,19,0.00,,CLR,0.00,VWS V14.01,2013-09-14 22:45:00,
2013-09-14 18:49:00,71.6,27.2,30.15,ENE,68,0.0,630.1,19,0.00,,CLR,0.00,VWS V14.01,2013-09-14 22:49:00,
2013-09-14 18:54:00,71.2,26.9,30.15,NE,45,0.0,630.1,19,0.00,,CLR,0.00,VWS V14.01,2013-09-14 22:54:00,
2013-09-14 18:59:00,71.2,26.9,30.15,North,0,0.0,630.1,19,0.00,,CLR,0.00,VWS V14.01,2013-09-14 22:59:00,
2013-09-14 19:00:00,71.1,26.8,30.15,SSE,158,0.0,630.1,19,0.00,,BKN250,0.00,VWS V14.01,2013-09-14 23:00:00,
2013-09-14 19:04:00,70.9,26.6,30.15,ESE,112,1.6,2.7,19,0.00,,CLR,0.00,VWS V14.01,2013-09-14 23:04:00,
2013-09-14 19:09:00,70.5,26.3,30.15,NNE,22,2.2,2.7,19,0.00,,CLR,0.00,VWS V14.01,2013-09-14 23:09:00,
2013-09-14 19:14:00,70.3,26.2,30.15,ESE,112,0.0,2.7,19,0.00,,CLR,0.00,VWS V14.01,2013-09-14 23:14:00,
2013-09-14 19:19:00,70.0,25.9,30.15,ESE,112,0.0,2.7,19,0.00,,CLR,0.00,VWS V14.01,2013-09-14 23:19:00,
2013-09-14 19:24:00,69.6,26.8,30.15,SSW,202,1.6,3.1,20,0.00,,CLR,0.00,VWS V14.01,2013-09-14 23:24:00,
2013-09-14 19:29:00,69.4,26.7,30.15,SSE,158,0.0,3.1,20,0.00,,CLR,0.00,VWS V14.01,2013-09-14 23:29:00,
2013-09-14 19:34:00,69.1,26.4,30.15,SSE,158,0.0,3.1,20,0.00,,CLR,0.00,VWS V14.01,2013-09-14 23:34:00,
2013-09-14 19:39:00,68.9,26.2,30.15,ESE,112,0.9,3.8,20,0.00,,CLR,0.00,VWS V14.01,2013-09-14 23:39:00,
2013-09-14 19:44:00,68.5,25.9,30.15,SSE,158,0.0,3.8,20,0.00,,CLR,0.00,VWS V14.01,2013-09-14 23:44:00,
2013-09-14 19:49:00,68.2,25.6,30.15,SSE,158,0.0,3.8,20,0.00,,CLR,0.00,VWS V14.01,2013-09-14 23:49:00,
2013-09-14 19:54:00,68.0,25.5,30.18,SSE,158,0.0,3.8,20,0.00,,CLR,0.00,VWS V14.01,2013-09-14 23:54:00,
2013-09-14 19:59:00,67.6,27.5,30.18,SSE,158,0.0,3.8,22,0.00,,CLR,0.00,VWS V14.01,2013-09-14 23:59:00,
2013-09-14 20:00:00,67.6,27.5,30.18,SSE,158,0.0,3.8,22,0.00,,BKN250,0.00,VWS V14.01,2013-09-15 00:00:00,
2013-09-14 20:04:00,67.5,27.3,30.18,SSE,158,0.0,0.0,22,0.00,,CLR,0.00,VWS V14.01,2013-09-15 00:04:00,
2013-09-14 20:08:00,67.3,27.2,30.15,South,180,0.0,0.0,22,0.00,,CLR,0.00,VWS V14.01,2013-09-15 00:08:00,
2013-09-14 20:13:00,66.9,26.9,30.15,South,180,0.0,0.0,22,0.00,,CLR,0.00,VWS V14.01,2013-09-15 00:13:00,
2013-09-14 20:18:00,66.7,27.8,30.15,South,180,0.0,0.0,23,0.00,,CLR,0.00,VWS V14.01,2013-09-15 00:18:00,
2013-09-14 20:23:00,66.6,27.6,30.15,South,180,0.0,0.0,23,0.00,,CLR,0.00,VWS V14.01,2013-09-15 00:23:00,
2013-09-14 20:28:00,66.4,27.5,30.15,South,180,0.0,0.0,23,0.00,,CLR,0.00,VWS V14.01,2013-09-15 00:28:00,
2013-09-14 20:33:00,66.2,27.3,30.15,South,180,0.0,0.0,23,0.00,,CLR,0.00,VWS V14.01,2013-09-15 00:33:00,
2013-09-14 20:38:00,66.0,28.2,30.15,ESE,112,0.0,2.0,24,0.00,,CLR,0.00,VWS V14.01,2013-09-15 00:38:00,
2013-09-14 20:43:00,65.8,28.1,30.15,ESE,112,0.0,2.0,24,0.00,,CLR,0.00,VWS V14.01,2013-09-15 00:43:00,
2013-09-14 20:48:00,65.7,27.9,30.15,ESE,112,0.0,2.0,24,0.00,,CLR,0.00,VWS V14.01,2013-09-15 00:48:00,
2013-09-14 20:53:00,65.5,29.7,30.15,ESE,112,0.0,2.0,26,0.00,,CLR,0.00,VWS V14.01,2013-09-15 00:53:00,
2013-09-14 20:58:00,65.1,30.3,30.15,ESE,112,0.0,2.0,27,0.00,,CLR,0.00,VWS V14.01,2013-09-15 00:58:00,
2013-09-14 21:00:00,65.1,31.2,30.15,ESE,112,0.0,2.0,28,0.00,,BKN250,0.00,VWS V14.01,2013-09-15 01:00:00,
2013-09-14 21:03:00,64.8,30.9,30.15,ESE,112,0.0,0.0,28,0.00,,CLR,0.00,VWS V14.01,2013-09-15 01:03:00,
2013-09-14 21:08:00,64.6,32.5,30.15,ESE,112,0.0,0.0,30,0.00,,CLR,0.00,VWS V14.01,2013-09-15 01:08:00,
2013-09-14 21:13:00,64.4,33.1,30.15,ESE,112,0.0,0.0,31,0.00,,CLR,0.00,VWS V14.01,2013-09-15 01:13:00,
2013-09-14 21:18:00,64.2,34.5,30.15,ESE,112,0.0,0.0,33,0.00,,CLR,0.00,VWS V14.01,2013-09-15 01:18:00,
2013-09-14 21:23:00,63.9,34.2,30.15,ESE,112,0.0,0.0,33,0.00,,CLR,0.00,VWS V14.01,2013-09-15 01:23:00,
2013-09-14 21:28:00,63.7,34.1,30.15,ESE,112,0.0,0.0,33,0.00,,CLR,0.00,VWS V14.01,2013-09-15 01:28:00,
2013-09-14 21:33:00,63.3,34.5,30.15,ESE,112,0.0,0.0,34,0.00,,CLR,0.00,VWS V14.01,2013-09-15 01:33:00,
2013-09-14 21:38:00,63.1,34.3,30.15,ESE,112,0.0,0.0,34,0.00,,CLR,0.00,VWS V14.01,2013-09-15 01:38:00,
2013-09-14 21:43:00,63.0,33.4,30.15,ESE,112,0.0,0.0,33,0.00,,CLR,0.00,VWS V14.01,2013-09-15 01:43:00,
2013-09-14 21:48:00,63.0,33.4,30.15,ESE,112,0.0,0.0,33,0.00,,CLR,0.00,VWS V14.01,2013-09-15 01:48:00,
2013-09-14 21:53:00,62.8,34.0,30.15,ESE,112,0.0,0.0,34,0.00,,CLR,0.00,VWS V14.01,2013-09-15 01:53:00,
2013-09-14 21:58:00,62.8,34.0,30.15,ESE,112,0.0,0.0,34,0.00,,CLR,0.00,VWS V14.01,2013-09-15 01:58:00,
2013-09-14 22:00:00,62.6,33.9,30.15,ESE,112,0.0,0.0,34,0.00,,BKN250,0.00,VWS V14.01,2013-09-15 02:00:00,
2013-09-14 22:03:00,62.6,33.9,30.15,ESE,112,0.0,0.0,34,0.00,,CLR,0.00,VWS V14.01,2013-09-15 02:03:00,
2013-09-14 22:08:00,62.6,33.9,30.15,ESE,112,0.0,0.0,34,0.00,,CLR,0.00,VWS V14.01,2013-09-15 02:08:00,
2013-09-14 22:13:00,62.6,33.9,30.15,ESE,112,0.0,0.0,34,0.00,,CLR,0.00,VWS V14.01,2013-09-15 02:13:00,
2013-09-14 22:18:00,62.4,34.4,30.15,ESE,112,0.0,0.0,35,0.00,,CLR,0.00,VWS V14.01,2013-09-15 02:18:00,
2013-09-14 22:23:00,62.2,34.3,30.12,ESE,112,0.0,0.0,35,0.00,,CLR,0.00,VWS V14.01,2013-09-15 02:23:00,
2013-09-14 22:28:00,62.1,34.8,30.12,ESE,112,0.0,0.0,36,0.00,,CLR,0.00,VWS V14.01,2013-09-15 02:28:00,
2013-09-14 22:33:00,61.9,34.7,30.12,ESE,112,0.0,0.0,36,0.00,,CLR,0.00,VWS V14.01,2013-09-15 02:33:00,
2013-09-14 22:38:00,61.9,35.3,30.15,ESE,112,0.0,0.0,37,0.00,,CLR,0.00,VWS V14.01,2013-09-15 02:38:00,
2013-09-14 22:43:00,61.7,35.2,30.15,ESE,112,0.0,0.0,37,0.00,,CLR,0.00,VWS V14.01,2013-09-15 02:43:00,
2013-09-14 22:48:00,61.5,35.0,30.15,ESE,112,0.0,0.0,37,0.00,,CLR,0.00,VWS V14.01,2013-09-15 02:48:00,
2013-09-14 22:53:00,61.3,34.9,30.15,ESE,112,0.0,0.0,37,0.00,,CLR,0.00,VWS V14.01,2013-09-15 02:53:00,
2013-09-14 22:58:00,61.2,34.7,30.15,ESE,112,0.0,0.0,37,0.00,,CLR,0.00,VWS V14.01,2013-09-15 02:58:00,
2013-09-14 23:00:00,61.2,34.7,30.15,ESE,112,0.0,0.0,37,0.00,,BKN250,0.00,VWS V14.01,2013-09-15 03:00:00,
2013-09-14 23:03:00,61.0,35.2,30.15,ESE,112,0.0,0.0,38,0.00,,CLR,0.00,VWS V14.01,2013-09-15 03:03:00,
2013-09-14 23:08:00,61.0,35.9,30.15,ESE,112,0.0,0.0,39,0.00,,CLR,0.00,VWS V14.01,2013-09-15 03:08:00,
2013-09-14 23:13:00,60.6,36.2,30.15,ESE,112,0.0,0.0,40,0.00,,CLR,0.00,VWS V14.01,2013-09-15 03:13:00,
2013-09-14 23:18:00,60.4,36.0,30.15,ESE,112,0.0,0.0,40,0.00,,CLR,0.00,VWS V14.01,2013-09-15 03:18:00,
2013-09-14 23:23:00,60.3,35.9,30.15,ESE,112,0.0,0.0,40,0.00,,CLR,0.00,VWS V14.01,2013-09-15 03:23:00,
2013-09-14 23:28:00,60.1,37.5,30.15,ESE,112,0.0,0.0,43,0.00,,CLR,0.00,VWS V14.01,2013-09-15 03:28:00,
2013-09-14 23:33:00,59.9,38.0,30.15,ESE,112,0.0,0.0,44,0.00,,CLR,0.00,VWS V14.01,2013-09-15 03:33:00,
2013-09-14 23:38:00,59.7,38.4,30.15,ESE,112,0.0,0.0,45,0.00,,CLR,0.00,VWS V14.01,2013-09-15 03:38:00,
2013-09-14 23:43:00,59.7,38.4,30.15,ESE,112,0.0,0.0,45,0.00,,CLR,0.00,VWS V14.01,2013-09-15 03:43:00,
2013-09-14 23:48:00,59.4,38.0,30.15,ESE,112,0.0,0.0,45,0.00,,CLR,0.00,VWS V14.01,2013-09-15 03:48:00,
2013-09-14 23:53:00,59.4,38.6,30.15,ESE,112,0.0,0.0,46,0.00,,CLR,0.00,VWS V14.01,2013-09-15 03:53:00,
2013-09-14 23:58:00,59.2,39.0,30.15,ESE,112,0.0,0.0,47,0.00,,CLR,0.00,VWS V14.01,2013-09-15 03:58:00,